FW6146 Weather Reports


Display with metric or nautical units.
time (UTC)temp
F
wind
direction
speed
MPH
gust
MPH
rain 1hr
in
rain 24hr
in
rain mn
in
humidity
%
barometer
mb
20260509134942 49 0.0 0.0 0.00 0.03 0.03 94 1013.9
20260509133926 48 0.0 0.0 0.00 0.03 0.03 95 1014.0
20260509132944 48 0.0 0.0 0.00 0.03 0.03 95 1014.1
20260509131949 46 0.0 0.0 0.01 0.03 0.03 95 1014.2
20260509130949 45 0.0 0.0 0.01 0.03 0.03 95 1014.2
20260509125934 45 0.0 0.0 0.01 0.03 0.03 95 1014.2
20260509124951 44 0.0 0.0 0.02 0.03 0.03 95 1014.0
20260509123956 44 0.0 0.0 0.02 0.03 0.03 95 1014.1
20260509122941 44 0.0 0.0 0.02 0.03 0.03 94 1014.2
20260509121936 43 0.0 0.0 0.02 0.02 0.02 94 1014.2
20260509120921 43 0.0 0.0 0.02 0.02 0.02 94 1014.5
20260509115939 42 0.0 0.0 0.02 0.02 0.02 94 1014.5
20260509114922 42 0.0 0.0 0.01 0.01 0.01 93 1014.6
20260509113940 42 0.0 0.0 0.01 0.01 0.01 93 1014.6
20260509113006 42 0.0 1.0 0.01 0.01 0.01 92 1014.7
20260509112006 41 0.0 1.0 0.00 0.00 0.00 91 1014.8
20260509110930 41 0.0 1.0 0.00 0.00 0.00 91 1014.9
20260509105948 41 0.0 0.0 0.00 0.00 0.00 90 1014.6
20260509104933 41 4 1.0 2.0 0.00 0.00 0.00 90 1014.4
20260509103952 41 320 1.0 1.0 0.00 0.00 0.00 89 1014.4
20260509102937 40 11 1.0 2.0 0.00 0.00 0.00 89 1014.2
20260509101956 40 0.0 0.0 0.00 0.00 0.00 89 1013.9
20260509101001 40 0.0 0.0 0.00 0.00 0.00 89 1013.7
20260509100006 40 0.0 0.0 0.00 0.00 0.00 89 1013.6
20260509094946 40 0.0 0.0 0.00 0.00 0.00 89 1013.5
20260509093950 39 0.0 0.0 0.00 0.00 0.00 89 1013.4
20260509092948 39 0.0 0.0 0.00 0.00 0.00 89 1013.4
20260509091931 39 0.0 0.0 0.00 0.00 0.00 90 1013.4
20260509090950 38 0.0 0.0 0.00 0.00 0.00 89 1013.3
20260509085935 38 0.0 0.0 0.00 0.00 0.00 89 1013.5
20260509084953 38 0.0 0.0 0.00 0.00 0.00 88 1013.5
20260509083938 39 0.0 0.0 0.00 0.00 0.00 87 1013.2
20260509082957 39 0.0 0.0 0.00 0.00 0.00 87 1013.4
20260509081942 39 0.0 0.0 0.00 0.00 0.00 87 1013.3
20260509081020 39 0.0 0.0 0.00 0.00 0.00 87 1013.5
20260509080005 39 0.0 0.0 0.00 0.00 0.00 88 1013.6
20260509075004 38 0.0 0.0 0.00 0.00 0.00 87 1013.6
20260509073950 40 0.0 0.0 0.00 0.00 0.00 86 1013.3
20260509072935 40 0.0 0.0 0.00 0.00 0.00 85 1013.6
20260509071954 40 0.0 0.0 0.00 0.00 0.00 84 1013.6
20260509071019 40 0.0 0.0 0.00 0.00 0.00 84 1013.6
20260509065958 40 0.0 0.0 0.00 0.00 0.00 84 1013.5
20260509064943 40 0.0 0.0 0.00 0.00 0.00 86 1013.5
20260509064002 39 0.0 0.0 0.00 0.00 0.00 86 1013.4
20260509062947 40 0.0 0.0 0.00 0.00 0.00 84 1013.4
20260509062005 40 0.0 0.0 0.00 0.00 0.00 83 1013.3
20260509060951 41 0.0 0.0 0.00 0.00 0.00 82 1013.1
20260509055937 41 0.0 0.0 0.00 0.00 0.00 83 1013.3
20260509054954 41 0.0 0.0 0.00 0.00 0.00 82 1013.3
20260509053937 42 0.0 0.0 0.00 0.00 0.00 79 1013.4
20260509052956 42 0.0 0.0 0.00 0.00 0.00 79 1013.2
20260509051941 42 0.0 0.0 0.00 0.00 0.00 79 1013.3
20260509051000 42 0.0 0.0 0.00 0.00 0.00 78 1013.4
20260509045944 43 0.0 0.0 0.00 0.00 0.00 77 1013.4
20260509045003 42 0.0 0.0 0.00 0.00 0.00 78 1013.1
20260509044009 43 0.0 0.0 0.00 0.00 0.00 77 1013.2
20260509043007 43 0.0 0.0 0.00 0.00 0.00 76 1013.1
20260509041952 43 0.0 0.0 0.00 0.00 0.00 75 1013.0
20260509041011 44 0.0 0.0 0.00 0.00 0.00 74 1012.9
20260509035956 45 0.0 0.0 0.00 0.00 0.00 73 1012.9
20260509035014 44 0.0 0.0 0.00 0.00 0.00 72 1012.8
20260509033959 45 0.0 0.0 0.00 0.00 0.00 72 1012.8
20260509032943 46 0.0 0.0 0.00 0.00 0.00 71 1012.6
20260509032001 46 0.0 0.0 0.00 0.00 0.00 71 1012.9
20260509030947 47 0.0 0.0 0.00 0.00 0.00 69 1012.8
20260509030006 47 0.0 0.0 0.00 0.00 0.00 68 1012.7
20260509024951 47 0.0 0.0 0.00 0.00 0.00 66 1012.6
20260509024009 47 0.0 0.0 0.00 0.00 0.00 66 1012.6
20260509022954 48 0.0 0.0 0.00 0.00 0.00 64 1012.5
20260509022012 48 0.0 0.0 0.00 0.00 0.00 64 1012.5
20260509020958 48 0.0 0.0 0.00 0.00 0.00 64 1012.2
20260509020037 49 0.0 0.0 0.00 0.00 0.00 60 1012.1
20260509015003 49 0.0 0.0 0.00 0.00 0.00 60 1011.9
20260509013948 50 0.0 1.0 0.00 0.00 0.00 59 1011.7
20260509013005 50 0.0 0.0 0.00 0.00 0.00 58 1011.6
20260509011950 50 0.0 1.0 0.00 0.00 0.00 57 1011.3
20260509011009 51 307 1.0 1.0 0.00 0.00 0.00 57 1011.3
20260509005954 51 309 1.0 2.0 0.00 0.00 0.00 56 1011.0
20260509005012 51 346 0.0 1.0 0.00 0.00 0.00 55 1010.9
20260509003957 52 0.0 0.0 0.00 0.00 0.00 54 1010.7
20260509003036 52 0.0 0.0 0.00 0.00 0.00 53 1010.3
20260509002001 52 314 0.0 1.0 0.00 0.00 0.00 52 1010.2
20260509001020 53 0.0 0.0 0.00 0.00 0.00 51 1009.9
20260509000005 53 0.0 1.0 0.00 0.00 0.00 50 1009.6
20260508235023 54 314 1.0 1.0 0.00 0.00 0.00 49 1009.7
20260508234030 54 314 1.0 1.0 0.00 0.00 0.00 49 1009.4
20260508232955 55 310 1.0 2.0 0.00 0.00 0.00 46 1009.2
20260508232013 55 307 1.0 3.0 0.00 0.00 0.00 45 1009.3
20260508230959 56 333 2.0 3.0 0.00 0.00 0.00 45 1009.2
20260508230018 56 336 1.0 2.0 0.00 0.00 0.00 45 1009.0
20260508225002 57 299 2.0 3.0 0.00 0.00 0.00 45 1009.1
20260508224020 57 337 1.0 5.0 0.00 0.00 0.00 43 1009.0
20260508223005 57 323 1.0 3.0 0.00 0.00 0.00 45 1009.0
20260508222023 57 329 3.0 5.0 0.00 0.00 0.00 45 1008.9
20260508221028 58 340 1.0 3.0 0.00 0.00 0.00 44 1009.0
20260508220027 58 355 2.0 5.0 0.00 0.00 0.00 45 1009.0
20260508215032 59 313 3.0 5.0 0.00 0.00 0.00 44 1008.8
20260508214029 58 308 3.0 5.0 0.00 0.00 0.00 43 1008.6
20260508213013 59 317 1.0 3.0 0.00 0.00 0.00 44 1008.8
20260508211959 59 349 1.0 3.0 0.00 0.00 0.00 44 1008.5
20260508211016 58 274 3.0 5.0 0.00 0.00 0.00 45 1008.6
20260508210001 58 301 2.0 3.0 0.00 0.00 0.00 43 1008.7
20260508205019 59 305 4.0 6.0 0.00 0.00 0.00 43 1008.4
20260508204025 59 359 2.0 5.0 0.00 0.00 0.00 41 1008.4
20260508203023 59 301 2.0 5.0 0.00 0.00 0.00 41 1008.3
20260508201902 58 310 2.0 3.0 0.00 0.00 0.00 43 1008.2
20260508200921 57 323 3.0 5.0 0.00 0.00 0.00 43 1008.3
20260508195906 58 310 1.0 2.0 0.00 0.00 0.00 41 1008.2
20260508194924 59 295 2.0 5.0 0.00 0.00 0.00 41 1008.2
20260508193909 59 342 1.0 3.0 0.00 0.00 0.00 40 1007.9
20260508192928 60 311 2.0 6.0 0.00 0.00 0.00 39 1007.8
20260508191914 60 310 2.0 3.0 0.00 0.00 0.00 37 1007.8
20260508190953 60 298 3.0 6.0 0.00 0.00 0.00 36 1007.9
20260508185939 61 306 4.0 7.0 0.00 0.00 0.00 36 1007.9
20260508184925 60 322 1.0 6.0 0.00 0.00 0.00 37 1007.7
20260508183923 60 330 3.0 5.0 0.00 0.00 0.00 36 1007.9
20260508182909 61 305 1.0 3.0 0.00 0.00 0.00 36 1007.7
20260508181928 60 322 2.0 5.0 0.00 0.00 0.00 37 1007.9
20260508180914 60 297 3.0 6.0 0.00 0.00 0.00 37 1007.8
20260508175933 61 298 2.0 5.0 0.00 0.00 0.00 36 1007.8
20260508175058 61 300 2.0 3.0 0.00 0.00 0.00 38 1007.8
20260508173937 61 300 2.0 3.0 0.00 0.00 0.00 37 1007.8
20260508172922 61 288 3.0 7.0 0.00 0.00 0.00 37 1007.9
20260508172001 60 306 3.0 8.0 0.00 0.00 0.00 40 1008.0
20260508170926 61 287 3.0 6.0 0.00 0.00 0.00 37 1007.9
20260508165912 59 323 3.0 6.0 0.00 0.00 0.00 40 1008.0
20260508164931 61 308 4.0 7.0 0.00 0.00 0.00 38 1008.0
20260508163918 60 287 4.0 6.0 0.00 0.00 0.00 39 1008.0
20260508162936 60 269 1.0 5.0 0.00 0.00 0.00 39 1007.9
20260508161921 60 313 4.0 6.0 0.00 0.00 0.00 40 1008.2
20260508160940 59 299 3.0 6.0 0.00 0.00 0.00 39 1008.2
20260508155926 58 281 3.0 5.0 0.00 0.00 0.00 40 1008.3
20260508154912 59 270 3.0 6.0 0.00 0.00 0.00 40 1008.4
20260508153951 58 268 3.0 5.0 0.00 0.00 0.00 41 1008.5
20260508152915 58 312 2.0 3.0 0.00 0.00 0.00 42 1008.7
20260508151932 58 288 4.0 7.0 0.00 0.00 0.00 41 1008.6
20260508150917 57 249 4.0 7.0 0.00 0.00 0.00 40 1008.8
20260508145937 58 2 2.0 6.0 0.00 0.00 0.00 39 1008.7
20260508144923 57 296 3.0 5.0 0.00 0.00 0.00 39 1009.0
20260508143942 56 289 2.0 3.0 0.00 0.00 0.00 40 1008.8
20260508142927 56 304 2.0 5.0 0.00 0.00 0.00 41 1009.0
20260508141946 56 306 1.0 2.0 0.00 0.00 0.00 41 1008.8
20260508140931 56 308 3.0 6.0 0.00 0.00 0.00 40 1009.0
20260508135950 55 0.0 5.0 0.00 0.00 0.00 41 1009.0